• In India
  • List of Countries
  • For 7 days
  • Water Temperature
  • Satellite Maps
  • Weather Map
  • Weather Widgets
  • user-avatar
    Login

    Hourly Weather Zadworze

    Today, 19 February, Tuesday

    Time Temperature Precipitation Wind Pressure Humidity
    00:00 +2°C° 0 mm 3 mps 743 mmHg 87%
    01:00 +2°C° 0 mm 3 mps 743 mmHg 88%
    02:00 +1°C° 0 mm 3 mps 742 mmHg 89%
    03:00 +1°C° 0 mm 3 mps 742 mmHg 89%
    04:00 +1°C° 0 mm 3 mps 742 mmHg 90%
    05:00 +1°C° 0 mm 3 mps 741 mmHg 90%
    06:00 0°C° 0 mm 3 mps 741 mmHg 90%
    07:00 0°C° 0 mm 3 mps 741 mmHg 89%
    08:00 +2°C° 0 mm 3 mps 741 mmHg 82%
    09:00 +3°C° 0 mm 4 mps 741 mmHg 74%
    10:00 +5°C° 0 mm 4 mps 740 mmHg 66%
    11:00 +6°C° 0 mm 4 mps 740 mmHg 61%
    12:00 +8°C° 0 mm 5 mps 740 mmHg 55%
    13:00 +9°C° 0 mm 5 mps 740 mmHg 50%
    14:00 +10°C° 0 mm 4 mps 739 mmHg 51%
    15:00 +8°C° 0 mm 4 mps 739 mmHg 53%
    16:00 +8°C° 0 mm 4 mps 739 mmHg 54%
    17:00 +7°C° 0 mm 4 mps 739 mmHg 59%
    18:00 +6°C° 0 mm 4 mps 739 mmHg 65%
    19:00 +5°C° 0 mm 4 mps 738 mmHg 70%
    20:00 +4°C° 0 mm 4 mps 739 mmHg 73%
    21:00 +4°C° 0 mm 4 mps 739 mmHg 75%
    22:00 +4°C° 0 mm 4 mps 739 mmHg 77%
    23:00 +4°C° 0.2 mm 4 mps 739 mmHg 80%

    Tomorrow, 20 February, Wednesday

    Time Temperature Precipitation Wind Pressure Humidity
    00:00 +4°C° 0.2 mm 4 mps 739 mmHg 84%
    01:00 +4°C° 0.2 mm 4 mps 739 mmHg 87%
    02:00 +3°C° 0.1 mm 4 mps 739 mmHg 88%
    03:00 +3°C° 0.1 mm 4 mps 739 mmHg 90%
    04:00 +3°C° 0.1 mm 4 mps 739 mmHg 91%
    05:00 +2°C° 0 mm 5 mps 739 mmHg 90%
    06:00 +2°C° 0 mm 5 mps 739 mmHg 89%
    07:00 +2°C° 0 mm 5 mps 739 mmHg 88%
    08:00 +2°C° 0 mm 6 mps 740 mmHg 82%
    09:00 +3°C° 0 mm 6 mps 740 mmHg 75%
    10:00 +3°C° 0 mm 7 mps 741 mmHg 69%
    11:00 +4°C° 0.1 mm 7 mps 741 mmHg 68%
    12:00 +4°C° 0.1 mm 7 mps 741 mmHg 67%
    13:00 +4°C° 0.1 mm 8 mps 741 mmHg 67%
    14:00 +4°C° 0.1 mm 7 mps 741 mmHg 66%
    15:00 +3°C° 0.1 mm 7 mps 741 mmHg 66%
    16:00 +3°C° 0.1 mm 7 mps 741 mmHg 66%
    17:00 +3°C° 0.1 mm 6 mps 742 mmHg 70%
    18:00 +3°C° 0.1 mm 6 mps 742 mmHg 74%
    19:00 +2°C° 0.1 mm 5 mps 742 mmHg 77%
    20:00 +2°C° 0.1 mm 5 mps 743 mmHg 79%
    21:00 +2°C° 0.1 mm 5 mps 743 mmHg 81%
    22:00 +2°C° 0.1 mm 5 mps 743 mmHg 82%
    23:00 +1°C° 0 mm 5 mps 743 mmHg 84%

    Day after tomorrow, 21 February, Thursday

    Time Temperature Precipitation Wind Pressure Humidity
    00:00 +1°C° 0 mm 5 mps 743 mmHg 87%
    01:00 +1°C° 0 mm 5 mps 743 mmHg 89%
    02:00 0°C° 0 mm 4 mps 743 mmHg 90%
    03:00 0°C° 0 mm 4 mps 743 mmHg 91%
    04:00 0°C° 0 mm 4 mps 743 mmHg 93%
    05:00 0°C° 0 mm 4 mps 743 mmHg 92%
    06:00 0°C° 0 mm 4 mps 744 mmHg 92%
    07:00 +1°C° 0 mm 3 mps 744 mmHg 92%
    08:00 +1°C° 0.4 mm 4 mps 744 mmHg 90%
    09:00 +2°C° 0.4 mm 5 mps 744 mmHg 89%
    10:00 +2°C° 0.4 mm 5 mps 744 mmHg 87%
    11:00 +3°C° 0.5 mm 5 mps 743 mmHg 85%
    12:00 +3°C° 0.5 mm 5 mps 743 mmHg 83%
    13:00 +3°C° 0.5 mm 5 mps 743 mmHg 80%
    14:00 +3°C° 0.4 mm 5 mps 743 mmHg 82%
    15:00 +3°C° 0.4 mm 5 mps 742 mmHg 84%
    16:00 +4°C° 0.4 mm 4 mps 742 mmHg 86%
    17:00 +4°C° 0.3 mm 4 mps 742 mmHg 88%
    18:00 +4°C° 0.3 mm 4 mps 742 mmHg 89%
    19:00 +4°C° 0.3 mm 4 mps 742 mmHg 91%
    20:00 +4°C° 0.7 mm 4 mps 742 mmHg 92%
    21:00 +4°C° 0.7 mm 4 mps 741 mmHg 92%
    22:00 +3°C° 0.7 mm 4 mps 741 mmHg 93%
    23:00 +3°C° 0.8 mm 4 mps 741 mmHg 94%

    22 February, Friday

    Time Temperature Precipitation Wind Pressure Humidity
    00:00 +3°C° 0.8 mm 4 mps 741 mmHg 95%
    01:00 +3°C° 0.8 mm 4 mps 742 mmHg 96%
    02:00 +1°C° 0.2 mm 4 mps 742 mmHg 93%
    03:00 0°C° 0.2 mm 5 mps 742 mmHg 90%
    04:00 -3°C° 0.2 mm 6 mps 742 mmHg 87%
    05:00 -3°C° 0.2 mm 6 mps 744 mmHg 84%
    06:00 -4°C° 0.2 mm 6 mps 745 mmHg 80%
    07:00 -5°C° 0.2 mm 6 mps 746 mmHg 77%
    08:00 -6°C° 0 mm 7 mps 747 mmHg 72%
    09:00 -6°C° 0 mm 7 mps 748 mmHg 67%
    10:00 -6°C° 0 mm 7 mps 750 mmHg 62%
    11:00 -6°C° 0 mm 7 mps 750 mmHg 59%
    12:00 -5°C° 0 mm 6 mps 751 mmHg 56%
    13:00 -5°C° 0 mm 6 mps 752 mmHg 54%
    14:00 -5°C° 0 mm 6 mps 752 mmHg 51%
    15:00 -5°C° 0 mm 6 mps 753 mmHg 48%
    16:00 -5°C° 0 mm 6 mps 753 mmHg 46%
    17:00 -6°C° 0 mm 5 mps 754 mmHg 47%
    18:00 -6°C° 0 mm 5 mps 754 mmHg 47%
    19:00 -5°C° 0 mm 4 mps 755 mmHg 48%
    20:00 -7°C° 0 mm 4 mps 755 mmHg 47%
    21:00 -7°C° 0 mm 4 mps 755 mmHg 47%
    22:00 -7°C° 0 mm 4 mps 756 mmHg 46%
    23:00 -7°C° 0 mm 4 mps 756 mmHg 45%

    23 February, Saturday

    Time Temperature Precipitation Wind Pressure Humidity
    00:00 -7°C° 0 mm 4 mps 756 mmHg 45%
    01:00 -7°C° 0 mm 4 mps 756 mmHg 44%
    02:00 -7°C° 0 mm 4 mps 756 mmHg 44%
    03:00 -7°C° 0 mm 4 mps 756 mmHg 43%
    04:00 -7°C° 0 mm 4 mps 756 mmHg 43%
    05:00 -7°C° 0 mm 4 mps 756 mmHg 43%
    06:00 -7°C° 0 mm 4 mps 756 mmHg 44%
    07:00 -6°C° 0 mm 3 mps 756 mmHg 44%
    08:00 -6°C° 0 mm 3 mps 756 mmHg 41%
    09:00 -5°C° 0 mm 3 mps 756 mmHg 39%
    10:00 -4°C° 0 mm 3 mps 756 mmHg 37%
    11:00 -4°C° 0 mm 3 mps 756 mmHg 35%
    12:00 -2°C° 0 mm 3 mps 755 mmHg 33%
    13:00 -2°C° 0 mm 3 mps 755 mmHg 31%
    14:00 -2°C° 0 mm 3 mps 755 mmHg 32%
    15:00 -2°C° 0 mm 3 mps 754 mmHg 34%
    16:00 -2°C° 0 mm 3 mps 754 mmHg 35%
    17:00 -2°C° 0 mm 2 mps 754 mmHg 38%
    18:00 -3°C° 0 mm 2 mps 754 mmHg 41%
    19:00 -3°C° 0 mm 2 mps 755 mmHg 44%
    20:00 -3°C° 0 mm 2 mps 755 mmHg 46%
    21:00 -4°C° 0 mm 2 mps 755 mmHg 47%
    22:00 -2°C° 0 mm 1 mps 755 mmHg 48%
    23:00 -2°C° 0 mm 1 mps 755 mmHg 50%

    24 February, Sunday

    Time Temperature Precipitation Wind Pressure Humidity
    00:00 -2°C° 0 mm 1 mps 755 mmHg 51%
    01:00 -2°C° 0 mm 1 mps 755 mmHg 52%
    02:00 -2°C° 0 mm 1 mps 755 mmHg 52%
    03:00 -2°C° 0 mm 1 mps 755 mmHg 52%
    04:00 -2°C° 0 mm 1 mps 755 mmHg 52%
    05:00 -2°C° 0 mm 1 mps 755 mmHg 53%
    06:00 -4°C° 0 mm 2 mps 755 mmHg 54%
    07:00 -5°C° 0 mm 2 mps 756 mmHg 55%
    08:00 -4°C° 0 mm 2 mps 756 mmHg 49%
    09:00 -3°C° 0 mm 2 mps 756 mmHg 44%
    10:00 -2°C° 0 mm 2 mps 756 mmHg 38%
    11:00 -1°C° 0 mm 3 mps 756 mmHg 36%
    12:00 0°C° 0 mm 3 mps 756 mmHg 35%
    13:00 0°C° 0 mm 3 mps 756 mmHg 33%
    14:00 0°C° 0 mm 3 mps 756 mmHg 36%
    15:00 +1°C° 0 mm 2 mps 756 mmHg 39%
    16:00 -1°C° 0 mm 2 mps 756 mmHg 42%
    17:00 -1°C° 0 mm 2 mps 756 mmHg 45%
    18:00 -2°C° 0 mm 2 mps 756 mmHg 48%
    19:00 -3°C° 0 mm 2 mps 756 mmHg 52%
    20:00 -1°C° 0 mm 1 mps 756 mmHg 52%
    21:00 -1°C° 0 mm 1 mps 756 mmHg 53%
    22:00 -1°C° 0 mm 1 mps 756 mmHg 53%
    23:00 -1°C° 0 mm 1 mps 756 mmHg 53%
    Show more